Location: Shenandoah County Park
(38.9356°N, 78.4524°W)
Time: 14:48:10
(UTC-04:00)

CAS-4B - Pass Details

Date: 25 April 2024
Orbit: 476 x 492 km, 43.0° (Epoch: 20 May)

Event Time Altitude Azimuth Distance (km) Brightness Sun altitude
Exits shadow 04:23:07 33° 318° (NW) 837 ? -21.2°
Maximum altitude 04:24:18 44° 5° (N) 675 ? -21.1°
Drops below altitude 10° 04:27:58 10° 79° (E) 1,672 ? -20.5°
Sets 04:30:14 0° 86° (E) 2,558 ? -20.2°
